FW2966 Weather Reports


time (UTC)temp
F
wind
direction
speed
knots
gust
knots
rain 1hr
in
rain 24hr
in
rain mn
in
humidity
%
barometer
mb
20260503050055 50 0 0.0 7.0 0.00 0.03 0.00 55 1010.6
20260503044549 50 0 0.9 9.6 0.00 0.03 0.00 56 1010.8
20260503043054 50 0 0.9 6.1 0.00 0.03 0.00 53 1010.7
20260503041548 51 0 0.9 4.3 0.00 0.03 0.00 54 1011.0
20260503040052 51 285 1.7 7.0 0.00 0.03 0.00 53 1010.9
20260503034549 51 280 1.7 9.6 0.00 0.03 0.03 53 1010.8
20260503033051 51 0 0.9 5.2 0.00 0.03 0.03 54 1010.7
20260503031548 52 0 0.0 3.5 0.00 0.03 0.03 52 1010.7
20260503030050 52 240 0.9 4.3 0.00 0.03 0.03 50 1010.6
20260503024557 53 217 0.9 3.5 0.00 0.03 0.03 50 1010.4
20260503023048 53 261 1.7 6.1 0.00 0.03 0.03 50 1010.4
20260503021556 53 218 1.7 6.1 0.00 0.03 0.03 49 1010.7
20260503020052 54 264 2.6 8.7 0.00 0.03 0.03 47 1010.9
20260503014614 54 307 0.9 8.7 0.00 0.03 0.03 46 1010.8
20260503013046 54 239 0.9 7.0 0.00 0.03 0.03 47 1010.7
20260503011555 54 224 1.7 6.1 0.00 0.03 0.03 47 1010.6
20260503010054 55 259 1.7 7.0 0.00 0.03 0.03 46 1010.4
20260503004557 55 227 1.7 7.8 0.00 0.03 0.03 44 1010.2
20260503003048 56 182 1.7 10.4 0.00 0.03 0.03 43 1010.1
20260503001550 56 248 1.7 8.7 0.00 0.03 0.03 43 1010.0
20260503000043 56 221 3.5 8.7 0.00 0.03 0.03 45 1010.0
20260502234547 56 263 0.9 2.6 0.00 0.03 0.03 45 1009.8
20260502233052 57 0 0.0 6.1 0.00 0.03 0.03 44 1009.7
20260502231545 58 0 1.7 5.2 0.00 0.03 0.03 41 1009.7
20260502230042 59 256 1.7 7.0 0.00 0.03 0.03 42 1009.5
20260502224602 60 275 1.7 10.4 0.00 0.03 0.03 42 1009.5
20260502223047 60 205 2.6 7.8 0.00 0.03 0.03 43 1009.4
20260502221544 58 61 0.0 3.5 0.00 0.03 0.03 62 1009.4
20260502220051 57 0 1.7 7.8 0.00 0.03 0.03 68 1009.3
20260502214549 56 58 1.7 5.2 0.00 0.03 0.03 74 1009.3
20260502213103 57 58 1.7 7.0 0.00 0.03 0.03 73 1009.3
20260502211559 57 33 3.5 7.0 0.00 0.03 0.03 72 1009.3
20260502210043 57 34 1.7 6.1 0.00 0.03 0.03 71 1009.1
20260502204542 57 13 3.5 7.8 0.00 0.03 0.03 64 1008.9
20260502203058 57 39 3.5 8.7 0.00 0.03 0.03 68 1009.1
20260502201552 56 22 5.2 7.8 0.00 0.03 0.03 67 1009.4
20260502200059 57 29 4.3 8.7 0.00 0.03 0.03 66 1009.6
20260502194559 58 17 4.3 8.7 0.00 0.03 0.03 63 1009.7
20260502193046 60 159 0.9 4.3 0.00 0.03 0.03 52 1009.9
20260502191540 60 296 1.7 9.6 0.00 0.03 0.03 52 1010.0
20260502190047 60 237 1.7 6.1 0.00 0.03 0.03 51 1010.3
20260502184554 60 188 1.7 8.7 0.00 0.03 0.03 53 1010.4
20260502183057 60 292 1.7 7.0 0.00 0.03 0.03 54 1010.5
20260502181544 59 273 1.7 7.0 0.00 0.03 0.03 55 1010.8
20260502163056 58 190 2.6 6.1 0.00 0.03 0.03 63 1011.1
20260502161552 57 213 0.9 8.7 0.00 0.03 0.03 66 1011.2
20260502151600 52 61 0.9 2.6 0.00 0.03 0.03 82 1011.5
20260502123042 51 0 0.0 0.9 0.00 0.03 0.03 90 1011.9
20260502121545 50 0 0.0 0.0 0.00 0.03 0.03 90 1011.7
20260502114554 50 0 0.0 0.0 0.00 0.03 0.03 90 1011.7
20260502113050 50 0 0.0 0.0 0.00 0.03 0.03 90 1011.6
20260502111551 50 0 0.0 0.0 0.00 0.03 0.03 90 1011.7
20260502110042 50 0 0.0 0.0 0.02 0.03 0.03 90 1011.3
20260502104559 50 0 0.0 0.0 0.03 0.03 0.03 89 1011.1
20260502103046 50 0 0.0 0.0 0.03 0.03 0.03 88 1010.9
20260502101615 50 0 0.0 1.7 0.03 0.03 0.03 88 1010.9
20260502090106 50 0 0.9 7.8 0.00 0.00 0.00 88 1010.7
20260502070058 50 0 0.0 0.0 0.00 0.00 0.00 88 1010.9
20260502064545 49 0 0.0 0.0 0.00 0.00 0.00 87 1011.0
20260502063048 49 0 0.0 0.0 0.00 0.00 0.00 87 1011.2
20260502061603 49 266 0.9 2.6 0.00 0.00 0.00 86 1011.1
20260502060052 50 0 0.0 0.0 0.00 0.00 0.00 86 1011.1
20260502054556 50 0 0.0 0.0 0.00 0.00 0.00 86 1011.2
20260502053053 50 0 0.0 2.6 0.00 0.00 0.00 86 1011.3
20260502051610 50 0 0.0 0.0 0.00 0.00 0.00 85 1011.2